sat.trackr.live / text

‹ back to catalog

CARTOSAT-2E

NORAD 42767 · 2017-036C

PAYLOAD ACTIVE UNKNOWN

§ Identity

Operator
Country
IND
Launch date
2017-06-23
Launch site
SRILR
Launch vehicle
Mass (kg)
RCS (m²)

Purposes: earth_obs

External: N2YO · Heavens-Above · Gunter

§ Orbital elements

Epoch: 2026-09-20T03:38:08.119968Z

Period
94.78 min
Inclination
97.4180°
Eccentricity
0.0002936
Mean motion
15.19299541 rev/d
Perigee alt
505.9 km
Apogee alt
510.0 km
Semi-major
6,886.1 km
B*
8.2494e-5
RAAN
321.3337°
Arg perigee
6.4121°
Mean anomaly
353.7150°
Rev number
51,256

§ Raw data

CARTOSAT-2E1 42767U 17036C   26263.15148287  .00001673  00000+0  82494-4 0  99952 42767  97.4180 321.3337 0002936   6.4121 353.7150 15.19299541512562

JSON: /api/v1/satellites/42767 · /tle

For live sub-satellite position, see the globe view (requires WebGL).

§ Visibility from observer

Set your observer location to see the next 7 days of passes ≥ 10°. The values pass through the URL so the page stays shareable.

No JS? Fill the form by hand. The geolocation button needs JavaScript.

§ Radio — SatNOGS DB

ModeDescriptionDownlinkUplink
CW Beacon 2.246 GHz

1 transmitter · refreshed weekly from db.satnogs.org